Location: B?ezina
(49.8085°N, 13.6013°E)
Time: 21:45:19
(UTC+00:00)

ISS - Pass Details

Date: 19 May 2025
Orbit: 415 x 417 km, 51.6° (Epoch: 15 June)

Event Time Altitude Azimuth Distance (km) Brightness Sun altitude
Rises 20:17:12 0° 286° (WNW) 2,362 1.0 -11.3°
Reaches altitude 10° 20:19:18 10° 287° (WNW) 1,496 -0.1 -11.5°
Maximum altitude 20:22:40 85° 17° (NNE) 423 -3.8 -11.8°
Enters shadow 20:25:20 15° 105° (ESE) 1,219 -1.9 -12.1°
